Time,TemperatureF,DewpointF,PressureIn,WindDirection,WindDirectionDegrees,WindSpeedMPH,WindSpeedGustMPH,Humidity,HourlyPrecipIn,Conditions,Clouds,dailyrainin,SoftwareType,DateUTC
2013-10-07 00:01:00,50.1,48.1,29.60,NE,36,4.0,6.0,93,0.00,,,0.14,WUHU216DAVISVP2,2013-10-07 04:01:00,
2013-10-07 00:06:00,50.2,48.5,29.59,NNE,25,6.0,7.0,94,0.00,,,0.00,WUHU216DAVISVP2,2013-10-07 04:06:00,
2013-10-07 00:11:00,50.3,48.6,29.59,NNE,32,2.0,7.0,94,0.00,,,0.00,WUHU216DAVISVP2,2013-10-07 04:11:00,
2013-10-07 00:16:00,50.3,48.6,29.59,ENE,68,2.0,8.0,94,0.00,,,0.00,WUHU216DAVISVP2,2013-10-07 04:16:00,
2013-10-07 00:21:00,50.2,48.8,29.60,ESE,116,2.0,8.0,95,0.00,,,0.00,WUHU216DAVISVP2,2013-10-07 04:21:00,
2013-10-07 00:26:00,50.1,48.7,29.60,NNE,27,5.0,7.0,95,0.01,,,0.01,WUHU216DAVISVP2,2013-10-07 04:26:00,
2013-10-07 00:31:00,50.1,48.7,29.59,ENE,68,6.0,7.0,95,0.01,,,0.01,WUHU216DAVISVP2,2013-10-07 04:31:00,
2013-10-07 00:36:00,50.0,48.9,29.59,East,79,3.0,10.0,96,0.02,,,0.02,WUHU216DAVISVP2,2013-10-07 04:36:00,
2013-10-07 00:41:00,49.9,48.8,29.59,East,81,8.0,12.0,96,0.02,,,0.02,WUHU216DAVISVP2,2013-10-07 04:41:00,
2013-10-07 00:46:00,50.0,49.2,29.59,ENE,70,7.0,12.0,97,0.03,,,0.03,WUHU216DAVISVP2,2013-10-07 04:46:00,
2013-10-07 00:51:00,50.0,49.2,29.59,NE,46,4.0,12.0,97,0.03,,,0.03,WUHU216DAVISVP2,2013-10-07 04:51:00,
2013-10-07 00:56:00,50.1,49.3,29.59,East,94,6.0,12.0,97,0.03,,,0.03,WUHU216DAVISVP2,2013-10-07 04:56:00,
2013-10-07 01:01:00,50.1,49.3,29.59,East,100,4.0,11.0,97,0.03,,,0.03,WUHU216DAVISVP2,2013-10-07 05:01:00,
2013-10-07 01:06:00,50.2,49.4,29.59,ENE,58,3.0,11.0,97,0.04,,,0.04,WUHU216DAVISVP2,2013-10-07 05:06:00,
2013-10-07 01:11:00,50.2,49.4,29.59,NE,44,0.0,10.0,97,0.04,,,0.04,WUHU216DAVISVP2,2013-10-07 05:11:00,
2013-10-07 01:16:00,50.2,49.4,29.59,ENE,75,4.0,10.0,97,0.04,,,0.04,WUHU216DAVISVP2,2013-10-07 05:16:00,
2013-10-07 01:21:00,50.2,49.4,29.59,NE,54,2.0,8.0,97,0.04,,,0.04,WUHU216DAVISVP2,2013-10-07 05:21:00,
2013-10-07 01:26:00,50.2,49.4,29.58,NE,42,4.0,9.0,97,0.03,,,0.04,WUHU216DAVISVP2,2013-10-07 05:26:00,
2013-10-07 01:31:00,50.1,49.0,29.58,ESE,106,2.0,9.0,96,0.03,,,0.04,WUHU216DAVISVP2,2013-10-07 05:31:00,
2013-10-07 01:36:00,50.0,48.9,29.59,ENE,63,1.0,8.0,96,0.02,,,0.04,WUHU216DAVISVP2,2013-10-07 05:36:00,
2013-10-07 01:41:00,49.9,49.1,29.59,East,87,5.0,8.0,97,0.02,,,0.04,WUHU216DAVISVP2,2013-10-07 05:41:00,
2013-10-07 01:46:00,49.8,49.0,29.58,NE,37,3.0,7.0,97,0.01,,,0.04,WUHU216DAVISVP2,2013-10-07 05:46:00,
2013-10-07 01:51:00,49.7,48.9,29.58,East,85,3.0,7.0,97,0.01,,,0.04,WUHU216DAVISVP2,2013-10-07 05:51:00,
2013-10-07 01:56:00,49.6,48.8,29.58,ENE,75,4.0,6.0,97,0.01,,,0.04,WUHU216DAVISVP2,2013-10-07 05:56:00,
2013-10-07 02:01:00,49.5,48.7,29.59,ENE,77,1.0,6.0,97,0.01,,,0.04,WUHU216DAVISVP2,2013-10-07 06:01:00,
2013-10-07 02:06:00,49.4,48.6,29.59,East,85,2.0,6.0,97,0.00,,,0.04,WUHU216DAVISVP2,2013-10-07 06:06:00,
2013-10-07 02:11:00,49.3,48.5,29.59,ESE,115,2.0,5.0,97,0.00,,,0.04,WUHU216DAVISVP2,2013-10-07 06:11:00,
2013-10-07 02:16:00,49.2,48.4,29.59,East,91,1.0,5.0,97,0.00,,,0.04,WUHU216DAVISVP2,2013-10-07 06:16:00,
2013-10-07 02:21:00,49.1,48.3,29.59,ENE,68,2.0,5.0,97,0.00,,,0.04,WUHU216DAVISVP2,2013-10-07 06:21:00,
2013-10-07 02:26:00,49.1,48.5,29.58,ESE,111,3.0,5.0,98,0.00,,,0.04,WUHU216DAVISVP2,2013-10-07 06:26:00,
2013-10-07 02:31:00,49.2,48.6,29.58,East,101,4.0,8.0,98,0.00,,,0.04,WUHU216DAVISVP2,2013-10-07 06:31:00,
2013-10-07 02:36:00,49.2,48.6,29.58,East,96,3.0,8.0,98,0.00,,,0.04,WUHU216DAVISVP2,2013-10-07 06:36:00,
2013-10-07 02:41:00,49.1,48.5,29.58,ENE,75,1.0,7.0,98,0.00,,,0.04,WUHU216DAVISVP2,2013-10-07 06:41:00,
2013-10-07 02:46:00,49.1,48.5,29.58,NE,48,2.0,7.0,98,0.00,,,0.04,WUHU216DAVISVP2,2013-10-07 06:46:00,
2013-10-07 02:51:00,49.1,48.5,29.58,ENE,73,4.0,7.0,98,0.00,,,0.04,WUHU216DAVISVP2,2013-10-07 06:51:00,
2013-10-07 02:56:00,49.1,48.5,29.58,ENE,58,2.0,7.0,98,0.00,,,0.04,WUHU216DAVISVP2,2013-10-07 06:56:00,
2013-10-07 03:01:00,49.1,48.5,29.58,NE,56,2.0,9.0,98,0.00,,,0.04,WUHU216DAVISVP2,2013-10-07 07:01:00,
2013-10-07 03:06:00,49.1,48.5,29.58,ENE,68,1.0,9.0,98,0.00,,,0.04,WUHU216DAVISVP2,2013-10-07 07:06:00,
2013-10-07 03:11:00,49.2,48.6,29.58,East,86,1.0,10.0,98,0.00,,,0.04,WUHU216DAVISVP2,2013-10-07 07:11:00,
2013-10-07 03:16:00,49.2,48.4,29.57,ESE,110,1.0,10.0,97,0.00,,,0.04,WUHU216DAVISVP2,2013-10-07 07:16:00,
2013-10-07 03:21:00,49.2,48.4,29.57,ENE,58,2.0,9.0,97,0.00,,,0.04,WUHU216DAVISVP2,2013-10-07 07:21:00,
2013-10-07 03:26:00,49.1,48.3,29.57,ENE,75,5.0,9.0,97,0.00,,,0.04,WUHU216DAVISVP2,2013-10-07 07:26:00,
2013-10-07 03:31:00,49.1,48.3,29.57,NE,42,2.0,6.0,97,0.00,,,0.04,WUHU216DAVISVP2,2013-10-07 07:31:00,
2013-10-07 03:36:00,49.2,48.4,29.58,NNE,33,2.0,6.0,97,0.00,,,0.04,WUHU216DAVISVP2,2013-10-07 07:36:00,
2013-10-07 03:41:00,49.1,48.3,29.58,ENE,69,1.0,6.0,97,0.00,,,0.04,WUHU216DAVISVP2,2013-10-07 07:41:00,
2013-10-07 03:46:00,49.1,48.3,29.58,ENE,65,3.0,6.0,97,0.00,,,0.04,WUHU216DAVISVP2,2013-10-07 07:46:00,
2013-10-07 03:51:00,49.0,48.2,29.58,NE,37,2.0,6.0,97,0.00,,,0.04,WUHU216DAVISVP2,2013-10-07 07:51:00,
2013-10-07 03:56:00,48.9,48.1,29.58,ENE,70,2.0,6.0,97,0.00,,,0.04,WUHU216DAVISVP2,2013-10-07 07:56:00,
2013-10-07 04:01:00,48.7,47.9,29.58,NE,47,0.0,6.0,97,0.00,,,0.04,WUHU216DAVISVP2,2013-10-07 08:01:00,
2013-10-07 04:06:00,48.6,47.8,29.58,NE,34,5.0,6.0,97,0.00,,,0.04,WUHU216DAVISVP2,2013-10-07 08:06:00,
2013-10-07 04:11:00,48.5,47.7,29.58,NE,44,3.0,6.0,97,0.00,,,0.04,WUHU216DAVISVP2,2013-10-07 08:11:00,
2013-10-07 04:16:00,48.5,47.7,29.58,NE,44,0.0,6.0,97,0.00,,,0.04,WUHU216DAVISVP2,2013-10-07 08:16:00,
2013-10-07 04:21:00,48.5,47.9,29.58,ENE,63,4.0,5.0,98,0.00,,,0.04,WUHU216DAVISVP2,2013-10-07 08:21:00,
2013-10-07 04:26:00,48.6,48.0,29.58,NNE,33,3.0,5.0,98,0.00,,,0.04,WUHU216DAVISVP2,2013-10-07 08:26:00,
2013-10-07 04:31:00,48.5,47.9,29.59,NNE,30,4.0,7.0,98,0.00,,,0.04,WUHU216DAVISVP2,2013-10-07 08:31:00,
2013-10-07 04:36:00,48.1,47.0,29.59,ENE,64,5.0,12.0,96,0.00,,,0.04,WUHU216DAVISVP2,2013-10-07 08:36:00,
2013-10-07 04:41:00,47.9,46.8,29.58,NE,36,3.0,12.0,96,0.00,,,0.04,WUHU216DAVISVP2,2013-10-07 08:41:00,
2013-10-07 04:46:00,47.7,46.3,29.59,NE,37,8.0,12.0,95,0.00,,,0.04,WUHU216DAVISVP2,2013-10-07 08:46:00,
2013-10-07 04:51:00,47.4,46.0,29.59,ENE,63,6.0,13.0,95,0.00,,,0.04,WUHU216DAVISVP2,2013-10-07 08:51:00,
2013-10-07 04:56:00,47.2,45.8,29.59,NE,46,2.0,13.0,95,0.00,,,0.04,WUHU216DAVISVP2,2013-10-07 08:56:00,
2013-10-07 05:01:00,47.0,45.6,29.59,NE,46,0.0,12.0,95,0.00,,,0.04,WUHU216DAVISVP2,2013-10-07 09:01:00,
2013-10-07 05:06:00,46.9,45.5,29.59,NNE,14,5.0,9.0,95,0.01,,,0.05,WUHU216DAVISVP2,2013-10-07 09:06:00,
2013-10-07 05:11:00,46.8,45.4,29.59,NE,36,1.0,9.0,95,0.01,,,0.05,WUHU216DAVISVP2,2013-10-07 09:11:00,
2013-10-07 05:16:00,46.7,45.6,29.59,NNE,31,1.0,8.0,96,0.01,,,0.05,WUHU216DAVISVP2,2013-10-07 09:16:00,
2013-10-07 05:21:00,46.6,45.5,29.59,NE,46,2.0,8.0,96,0.01,,,0.05,WUHU216DAVISVP2,2013-10-07 09:21:00,
2013-10-07 05:26:00,46.5,45.4,29.59,ENE,65,1.0,7.0,96,0.01,,,0.05,WUHU216DAVISVP2,2013-10-07 09:26:00,
2013-10-07 05:31:00,46.5,45.4,29.60,NNE,30,1.0,6.0,96,0.02,,,0.06,WUHU216DAVISVP2,2013-10-07 09:31:00,
2013-10-07 05:36:00,46.5,45.7,29.60,NNE,23,3.0,5.0,97,0.02,,,0.06,WUHU216DAVISVP2,2013-10-07 09:36:00,
2013-10-07 05:41:00,46.4,45.6,29.60,NNW,342,1.0,6.0,97,0.02,,,0.06,WUHU216DAVISVP2,2013-10-07 09:41:00,
2013-10-07 05:46:00,46.4,45.6,29.59,East,101,2.0,6.0,97,0.02,,,0.06,WUHU216DAVISVP2,2013-10-07 09:46:00,
2013-10-07 05:51:00,46.4,45.6,29.60,NNE,20,2.0,6.0,97,0.02,,,0.06,WUHU216DAVISVP2,2013-10-07 09:51:00,
2013-10-07 05:56:00,46.4,45.6,29.60,ENE,68,1.0,5.0,97,0.02,,,0.06,WUHU216DAVISVP2,2013-10-07 09:56:00,
2013-10-07 06:01:00,46.4,45.6,29.60,NE,46,1.0,5.0,97,0.02,,,0.06,WUHU216DAVISVP2,2013-10-07 10:01:00,
2013-10-07 06:06:00,46.4,45.6,29.60,NE,46,1.0,4.0,97,0.01,,,0.06,WUHU216DAVISVP2,2013-10-07 10:06:00,
2013-10-07 06:11:00,46.4,45.6,29.60,East,80,0.0,6.0,97,0.01,,,0.06,WUHU216DAVISVP2,2013-10-07 10:11:00,
2013-10-07 06:16:00,46.4,45.6,29.60,NNE,16,3.0,6.0,97,0.01,,,0.06,WUHU216DAVISVP2,2013-10-07 10:16:00,
2013-10-07 06:21:00,46.4,45.6,29.60,NE,43,1.0,6.0,97,0.01,,,0.06,WUHU216DAVISVP2,2013-10-07 10:21:00,
2013-10-07 06:26:00,46.4,45.6,29.60,NE,41,5.0,6.0,97,0.01,,,0.06,WUHU216DAVISVP2,2013-10-07 10:26:00,
2013-10-07 06:31:00,46.4,45.6,29.60,North,8,3.0,7.0,97,0.00,,,0.06,WUHU216DAVISVP2,2013-10-07 10:31:00,
2013-10-07 06:36:00,46.4,45.6,29.60,NE,56,4.0,7.0,97,0.00,,,0.06,WUHU216DAVISVP2,2013-10-07 10:36:00,
2013-10-07 06:41:00,46.3,45.5,29.60,NE,36,1.0,7.0,97,0.00,,,0.06,WUHU216DAVISVP2,2013-10-07 10:41:00,
2013-10-07 06:46:00,46.4,45.6,29.60,NNE,26,2.0,7.0,97,0.00,,,0.06,WUHU216DAVISVP2,2013-10-07 10:46:00,
2013-10-07 06:51:00,46.4,45.6,29.60,East,85,1.0,5.0,97,0.00,,,0.06,WUHU216DAVISVP2,2013-10-07 10:51:00,
2013-10-07 06:56:00,46.4,45.6,29.61,East,84,1.0,5.0,97,0.00,,,0.06,WUHU216DAVISVP2,2013-10-07 10:56:00,
2013-10-07 07:01:00,46.3,45.5,29.61,NE,46,3.0,5.0,97,0.00,,,0.06,WUHU216DAVISVP2,2013-10-07 11:01:00,
2013-10-07 07:06:00,46.3,45.5,29.60,NNE,26,1.0,6.0,97,0.00,,,0.06,WUHU216DAVISVP2,2013-10-07 11:06:00,
2013-10-07 07:11:00,46.3,45.5,29.61,NNW,347,3.0,7.0,97,0.00,,,0.06,WUHU216DAVISVP2,2013-10-07 11:11:00,
2013-10-07 07:16:00,46.3,45.5,29.61,NE,50,1.0,7.0,97,0.00,,,0.06,WUHU216DAVISVP2,2013-10-07 11:16:00,
2013-10-07 07:21:00,46.3,45.5,29.61,NNE,12,2.0,7.0,97,0.00,,,0.06,WUHU216DAVISVP2,2013-10-07 11:21:00,
2013-10-07 07:26:00,46.3,45.5,29.61,NE,34,1.0,6.0,97,0.00,,,0.06,WUHU216DAVISVP2,2013-10-07 11:26:00,
2013-10-07 07:31:00,46.2,45.4,29.61,NNE,29,1.0,3.0,97,0.00,,,0.06,WUHU216DAVISVP2,2013-10-07 11:31:00,
2013-10-07 07:36:00,46.2,45.4,29.61,NNW,346,2.0,3.0,97,0.00,,,0.06,WUHU216DAVISVP2,2013-10-07 11:36:00,
2013-10-07 07:41:00,46.2,45.4,29.61,NNE,18,1.0,4.0,97,0.00,,,0.06,WUHU216DAVISVP2,2013-10-07 11:41:00,
2013-10-07 07:46:00,46.1,45.3,29.61,NNE,32,5.0,5.0,97,0.00,,,0.06,WUHU216DAVISVP2,2013-10-07 11:46:00,
2013-10-07 07:51:00,46.1,45.3,29.61,North,354,2.0,9.0,97,0.00,,,0.06,WUHU216DAVISVP2,2013-10-07 11:51:00,
2013-10-07 07:56:00,46.1,45.6,29.61,NE,52,3.0,9.0,98,0.00,,,0.06,WUHU216DAVISVP2,2013-10-07 11:56:00,
2013-10-07 08:01:00,46.1,45.6,29.61,North,5,3.0,9.0,98,0.00,,,0.06,WUHU216DAVISVP2,2013-10-07 12:01:00,
2013-10-07 08:06:00,46.1,45.6,29.61,East,93,5.0,8.0,98,0.00,,,0.06,WUHU216DAVISVP2,2013-10-07 12:06:00,
2013-10-07 08:11:00,46.2,45.7,29.62,ENE,72,2.0,6.0,98,0.00,,,0.06,WUHU216DAVISVP2,2013-10-07 12:11:00,
2013-10-07 08:16:00,46.2,45.7,29.62,NNE,20,2.0,6.0,98,0.00,,,0.06,WUHU216DAVISVP2,2013-10-07 12:16:00,
2013-10-07 08:21:00,46.3,45.7,29.62,NNE,25,3.0,10.0,98,0.01,,,0.07,WUHU216DAVISVP2,2013-10-07 12:21:00,
2013-10-07 08:26:00,46.2,45.7,29.62,North,8,1.0,10.0,98,0.01,,,0.07,WUHU216DAVISVP2,2013-10-07 12:26:00,
2013-10-07 08:31:00,46.3,45.7,29.62,NNE,23,3.0,9.0,98,0.01,,,0.07,WUHU216DAVISVP2,2013-10-07 12:31:00,
2013-10-07 08:36:00,46.3,45.8,29.62,NNW,331,0.0,9.0,98,0.01,,,0.07,WUHU216DAVISVP2,2013-10-07 12:36:00,
2013-10-07 08:41:00,46.3,45.8,29.62,NE,54,2.0,7.0,98,0.01,,,0.07,WUHU216DAVISVP2,2013-10-07 12:41:00,
2013-10-07 08:46:00,46.3,45.8,29.62,North,11,2.0,6.0,98,0.01,,,0.07,WUHU216DAVISVP2,2013-10-07 12:46:00,
2013-10-07 08:51:00,46.4,45.9,29.63,NNE,17,3.0,7.0,98,0.02,,,0.08,WUHU216DAVISVP2,2013-10-07 12:51:00,
2013-10-07 08:56:00,46.5,45.9,29.63,NNE,30,3.0,7.0,98,0.02,,,0.08,WUHU216DAVISVP2,2013-10-07 12:56:00,
2013-10-07 09:01:00,46.6,46.1,29.63,NE,43,3.0,11.0,98,0.02,,,0.08,WUHU216DAVISVP2,2013-10-07 13:01:00,
2013-10-07 09:06:00,46.8,46.2,29.64,NNE,26,3.0,11.0,98,0.02,,,0.08,WUHU216DAVISVP2,2013-10-07 13:06:00,
2013-10-07 09:11:00,46.9,46.6,29.64,ENE,74,2.0,10.0,99,0.02,,,0.08,WUHU216DAVISVP2,2013-10-07 13:11:00,
2013-10-07 09:16:00,47.0,46.7,29.64,NNE,17,2.0,10.0,99,0.02,,,0.08,WUHU216DAVISVP2,2013-10-07 13:16:00,
2013-10-07 09:21:00,47.1,46.8,29.64,East,91,5.0,6.0,99,0.01,,,0.08,WUHU216DAVISVP2,2013-10-07 13:21:00,
2013-10-07 09:26:00,47.4,47.1,29.64,ENE,57,1.0,7.0,99,0.01,,,0.08,WUHU216DAVISVP2,2013-10-07 13:26:00,
2013-10-07 09:31:00,47.7,47.4,29.64,NE,37,3.0,7.0,99,0.01,,,0.08,WUHU216DAVISVP2,2013-10-07 13:31:00,
2013-10-07 09:36:00,48.1,47.8,29.64,East,98,3.0,7.0,99,0.01,,,0.08,WUHU216DAVISVP2,2013-10-07 13:36:00,
2013-10-07 09:41:00,48.7,48.4,29.64,NNE,29,3.0,7.0,99,0.01,,,0.08,WUHU216DAVISVP2,2013-10-07 13:41:00,
2013-10-07 09:46:00,49.2,48.9,29.64,East,89,1.0,7.0,99,0.01,,,0.08,WUHU216DAVISVP2,2013-10-07 13:46:00,
2013-10-07 09:51:00,49.1,48.5,29.64,ENE,61,5.0,8.0,98,0.00,,,0.08,WUHU216DAVISVP2,2013-10-07 13:51:00,
2013-10-07 09:56:00,49.1,48.5,29.65,North,6,0.0,8.0,98,0.00,,,0.08,WUHU216DAVISVP2,2013-10-07 13:56:00,
2013-10-07 10:01:00,49.2,48.6,29.65,North,352,4.0,8.0,98,0.00,,,0.08,WUHU216DAVISVP2,2013-10-07 14:01:00,
2013-10-07 10:06:00,49.4,48.8,29.65,NNW,342,2.0,9.0,98,0.00,,,0.08,WUHU216DAVISVP2,2013-10-07 14:06:00,
2013-10-07 10:11:00,49.5,48.9,29.65,NE,39,5.0,9.0,98,0.00,,,0.08,WUHU216DAVISVP2,2013-10-07 14:11:00,
2013-10-07 10:16:00,49.3,48.5,29.65,NE,34,5.0,9.0,97,0.00,,,0.08,WUHU216DAVISVP2,2013-10-07 14:16:00,
2013-10-07 10:21:00,49.3,48.5,29.65,East,81,0.0,9.0,97,0.00,,,0.08,WUHU216DAVISVP2,2013-10-07 14:21:00,
2013-10-07 10:26:00,49.3,48.5,29.65,North,11,5.0,8.0,97,0.00,,,0.08,WUHU216DAVISVP2,2013-10-07 14:26:00,
2013-10-07 10:31:00,49.3,48.7,29.65,NE,47,0.0,8.0,98,0.00,,,0.08,WUHU216DAVISVP2,2013-10-07 14:31:00,
2013-10-07 10:36:00,49.4,48.8,29.65,North,356,1.0,8.0,98,0.00,,,0.08,WUHU216DAVISVP2,2013-10-07 14:36:00,
2013-10-07 10:41:00,49.4,48.9,29.65,NNE,18,2.0,8.0,98,0.00,,,0.08,WUHU216DAVISVP2,2013-10-07 14:41:00,
2013-10-07 10:46:00,49.5,49.0,29.66,ENE,72,3.0,7.0,98,0.01,,,0.09,WUHU216DAVISVP2,2013-10-07 14:46:00,
2013-10-07 10:51:00,49.7,49.1,29.66,NNE,16,5.0,7.0,98,0.01,,,0.09,WUHU216DAVISVP2,2013-10-07 14:51:00,
2013-10-07 10:56:00,49.8,49.3,29.66,East,94,3.0,7.0,98,0.01,,,0.09,WUHU216DAVISVP2,2013-10-07 14:56:00,
2013-10-07 11:01:00,49.9,49.4,29.66,NE,39,1.0,7.0,98,0.01,,,0.09,WUHU216DAVISVP2,2013-10-07 15:01:00,
2013-10-07 11:06:00,50.0,49.5,29.66,NE,53,2.0,7.0,98,0.01,,,0.09,WUHU216DAVISVP2,2013-10-07 15:06:00,
2013-10-07 11:11:00,50.1,49.6,29.67,East,79,0.0,7.0,98,0.02,,,0.10,WUHU216DAVISVP2,2013-10-07 15:11:00,
2013-10-07 11:16:00,50.2,49.7,29.67,ENE,77,2.0,10.0,98,0.02,,,0.10,WUHU216DAVISVP2,2013-10-07 15:16:00,
2013-10-07 11:21:00,50.3,49.8,29.67,East,81,5.0,10.0,98,0.03,,,0.11,WUHU216DAVISVP2,2013-10-07 15:21:00,
2013-10-07 11:26:00,50.4,49.9,29.67,ESE,105,3.0,12.0,98,0.03,,,0.11,WUHU216DAVISVP2,2013-10-07 15:26:00,
2013-10-07 11:31:00,50.5,50.0,29.68,East,101,5.0,12.0,98,0.04,,,0.12,WUHU216DAVISVP2,2013-10-07 15:31:00,
2013-10-07 11:36:00,50.6,50.1,29.68,ENE,60,7.0,10.0,98,0.05,,,0.13,WUHU216DAVISVP2,2013-10-07 15:36:00,
2013-10-07 11:41:00,50.8,50.2,29.68,ENE,68,6.0,10.0,98,0.05,,,0.13,WUHU216DAVISVP2,2013-10-07 15:41:00,
2013-10-07 11:46:00,51.0,50.4,29.68,East,93,0.0,10.0,98,0.04,,,0.13,WUHU216DAVISVP2,2013-10-07 15:46:00,
2013-10-07 11:51:00,51.4,51.1,29.68,ENE,57,2.0,10.0,99,0.04,,,0.13,WUHU216DAVISVP2,2013-10-07 15:51:00,
2013-10-07 11:56:00,51.7,51.4,29.68,ESE,117,8.0,13.0,99,0.04,,,0.13,WUHU216DAVISVP2,2013-10-07 15:56:00,
2013-10-07 12:01:00,51.8,51.2,29.69,SE,128,3.0,15.0,98,0.04,,,0.13,WUHU216DAVISVP2,2013-10-07 16:01:00,
2013-10-07 12:06:00,51.8,51.3,29.69,SE,125,6.0,15.0,98,0.05,,,0.14,WUHU216DAVISVP2,2013-10-07 16:06:00,
2013-10-07 12:11:00,51.8,51.3,29.70,ESE,103,4.0,14.0,98,0.04,,,0.14,WUHU216DAVISVP2,2013-10-07 16:11:00,
2013-10-07 12:16:00,51.7,50.8,29.70,SSW,201,5.0,15.0,97,0.04,,,0.14,WUHU216DAVISVP2,2013-10-07 16:16:00,
2013-10-07 12:21:00,51.7,50.8,29.71,SE,131,9.0,16.0,97,0.03,,,0.14,WUHU216DAVISVP2,2013-10-07 16:21:00,
2013-10-07 12:26:00,51.8,50.7,29.71,SE,139,8.0,16.0,96,0.03,,,0.14,WUHU216DAVISVP2,2013-10-07 16:26:00,
2013-10-07 12:31:00,51.9,50.8,29.72,ENE,75,4.0,16.0,96,0.02,,,0.14,WUHU216DAVISVP2,2013-10-07 16:31:00,
2013-10-07 12:36:00,51.6,50.2,29.72,SE,145,12.0,16.0,95,0.01,,,0.14,WUHU216DAVISVP2,2013-10-07 16:36:00,
2013-10-07 12:41:00,51.3,50.2,29.72,SE,125,7.0,15.0,96,0.01,,,0.14,WUHU216DAVISVP2,2013-10-07 16:41:00,
2013-10-07 12:46:00,51.4,50.3,29.72,SE,139,12.0,15.0,96,0.01,,,0.14,WUHU216DAVISVP2,2013-10-07 16:46:00,
2013-10-07 12:51:00,51.4,50.3,29.73,SSE,156,3.0,14.0,96,0.01,,,0.14,WUHU216DAVISVP2,2013-10-07 16:51:00,
2013-10-07 12:56:00,51.3,49.9,29.73,East,81,6.0,16.0,95,0.01,,,0.14,WUHU216DAVISVP2,2013-10-07 16:56:00,
2013-10-07 13:01:00,51.2,49.5,29.73,SSE,155,8.0,16.0,94,0.01,,,0.14,WUHU216DAVISVP2,2013-10-07 17:01:00,
2013-10-07 13:06:00,51.3,49.6,29.74,SE,134,6.0,17.0,94,0.00,,,0.14,WUHU216DAVISVP2,2013-10-07 17:06:00,
2013-10-07 13:11:00,51.6,49.9,29.74,SE,138,7.0,17.0,94,0.00,,,0.14,WUHU216DAVISVP2,2013-10-07 17:11:00,
2013-10-07 13:16:00,51.8,49.8,29.74,SE,145,8.0,17.0,93,0.00,,,0.14,WUHU216DAVISVP2,2013-10-07 17:16:00,
2013-10-07 13:21:00,52.0,49.7,29.74,ENE,65,9.0,14.0,92,0.00,,,0.14,WUHU216DAVISVP2,2013-10-07 17:21:00,
2013-10-07 13:26:00,51.9,49.3,29.75,SSE,158,4.0,14.0,91,0.00,,,0.14,WUHU216DAVISVP2,2013-10-07 17:26:00,
2013-10-07 13:31:00,52.1,48.9,29.75,ESE,113,6.0,14.0,89,0.00,,,0.14,WUHU216DAVISVP2,2013-10-07 17:31:00,
2013-10-07 13:36:00,52.4,48.9,29.75,SSE,148,5.0,14.0,88,0.00,,,0.14,WUHU216DAVISVP2,2013-10-07 17:36:00,
2013-10-07 13:41:00,52.6,49.1,29.75,SE,141,6.0,14.0,88,0.00,,,0.14,WUHU216DAVISVP2,2013-10-07 17:41:00,
2013-10-07 13:46:00,52.6,48.8,29.75,South,174,2.0,13.0,87,0.00,,,0.14,WUHU216DAVISVP2,2013-10-07 17:46:00,
2013-10-07 13:51:00,52.7,49.2,29.75,ESE,113,4.0,13.0,88,0.00,,,0.14,WUHU216DAVISVP2,2013-10-07 17:51:00,
2013-10-07 13:56:00,53.0,49.2,29.76,SE,129,5.0,12.0,87,0.00,,,0.14,WUHU216DAVISVP2,2013-10-07 17:56:00,
2013-10-07 14:01:00,53.7,49.3,29.76,SE,128,3.0,12.0,85,0.00,,,0.14,WUHU216DAVISVP2,2013-10-07 18:01:00,
2013-10-07 14:06:00,54.3,48.9,29.76,SE,132,10.0,16.0,82,0.00,,,0.14,WUHU216DAVISVP2,2013-10-07 18:06:00,
2013-10-07 14:11:00,55.4,50.3,29.76,NE,46,9.0,16.0,83,0.00,,,0.14,WUHU216DAVISVP2,2013-10-07 18:11:00,
2013-10-07 14:16:00,55.7,49.3,29.76,ESE,118,5.0,17.0,79,0.00,,,0.14,WUHU216DAVISVP2,2013-10-07 18:16:00,
2013-10-07 14:21:00,55.5,49.8,29.76,ENE,63,7.0,17.0,81,0.00,,,0.14,WUHU216DAVISVP2,2013-10-07 18:21:00,
2013-10-07 14:26:00,55.5,48.8,29.77,East,98,5.0,19.0,78,0.00,,,0.14,WUHU216DAVISVP2,2013-10-07 18:26:00,
2013-10-07 14:31:00,55.3,49.2,29.77,East,86,4.0,19.0,80,0.00,,,0.14,WUHU216DAVISVP2,2013-10-07 18:31:00,
2013-10-07 14:36:00,55.7,49.3,29.77,NE,42,3.0,19.0,79,0.00,,,0.14,WUHU216DAVISVP2,2013-10-07 18:36:00,
2013-10-07 14:41:00,55.9,49.5,29.77,ESE,103,6.0,19.0,79,0.00,,,0.14,WUHU216DAVISVP2,2013-10-07 18:41:00,
2013-10-07 14:46:00,55.9,49.5,29.77,ESE,118,6.0,14.0,79,0.00,,,0.14,WUHU216DAVISVP2,2013-10-07 18:46:00,
2013-10-07 14:51:00,56.4,48.9,29.77,SE,133,12.0,14.0,76,0.00,,,0.14,WUHU216DAVISVP2,2013-10-07 18:51:00,
2013-10-07 14:56:00,57.1,49.7,29.77,SSE,155,8.0,14.0,76,0.00,,,0.14,WUHU216DAVISVP2,2013-10-07 18:56:00,
2013-10-07 15:01:00,57.6,49.8,29.78,ESE,109,5.0,13.0,75,0.00,,,0.14,WUHU216DAVISVP2,2013-10-07 19:01:00,
2013-10-07 15:06:00,57.8,49.3,29.78,SE,140,10.0,13.0,73,0.00,,,0.14,WUHU216DAVISVP2,2013-10-07 19:06:00,
2013-10-07 15:11:00,57.6,49.1,29.78,SE,146,6.0,14.0,73,0.00,,,0.14,WUHU216DAVISVP2,2013-10-07 19:11:00,
2013-10-07 15:16:00,57.6,48.0,29.79,SE,131,6.0,14.0,70,0.00,,,0.14,WUHU216DAVISVP2,2013-10-07 19:16:00,
2013-10-07 15:21:00,56.9,47.3,29.79,ESE,108,6.0,13.0,70,0.00,,,0.14,WUHU216DAVISVP2,2013-10-07 19:21:00,
2013-10-07 15:26:00,56.9,47.7,29.79,ESE,115,7.0,13.0,71,0.00,,,0.14,WUHU216DAVISVP2,2013-10-07 19:26:00,
2013-10-07 15:31:00,57.0,47.1,29.80,SE,140,9.0,15.0,69,0.00,,,0.14,WUHU216DAVISVP2,2013-10-07 19:31:00,
2013-10-07 15:36:00,57.4,47.1,29.80,SE,124,11.0,15.0,68,0.00,,,0.14,WUHU216DAVISVP2,2013-10-07 19:36:00,
2013-10-07 15:41:00,58.1,47.3,29.81,SE,145,5.0,20.0,67,0.00,,,0.14,WUHU216DAVISVP2,2013-10-07 19:41:00,
2013-10-07 15:46:00,58.7,47.9,29.81,SE,145,6.0,20.0,67,0.00,,,0.14,WUHU216DAVISVP2,2013-10-07 19:46:00,
2013-10-07 15:51:00,58.5,46.9,29.81,ESE,103,6.0,18.0,65,0.00,,,0.14,WUHU216DAVISVP2,2013-10-07 19:51:00,
2013-10-07 15:56:00,58.5,47.6,29.81,SE,131,6.0,18.0,67,0.00,,,0.14,WUHU216DAVISVP2,2013-10-07 19:56:00,
2013-10-07 16:01:00,58.6,46.6,29.81,East,96,9.0,18.0,64,0.00,,,0.14,WUHU216DAVISVP2,2013-10-07 20:01:00,
2013-10-07 16:06:00,57.9,46.3,29.82,ENE,73,12.0,18.0,65,0.00,,,0.14,WUHU216DAVISVP2,2013-10-07 20:06:00,
2013-10-07 16:11:00,57.5,46.4,29.82,ENE,69,9.0,16.0,66,0.00,,,0.14,WUHU216DAVISVP2,2013-10-07 20:11:00,
2013-10-07 16:16:00,57.9,46.7,29.82,SE,129,7.0,16.0,66,0.00,,,0.14,WUHU216DAVISVP2,2013-10-07 20:16:00,
2013-10-07 16:21:00,57.8,47.0,29.82,ESE,111,5.0,16.0,67,0.00,,,0.14,WUHU216DAVISVP2,2013-10-07 20:21:00,
2013-10-07 16:26:00,58.1,46.9,29.82,ENE,72,4.0,15.0,66,0.00,,,0.14,WUHU216DAVISVP2,2013-10-07 20:26:00,
2013-10-07 16:31:00,58.5,46.9,29.83,ENE,68,11.0,15.0,65,0.00,,,0.14,WUHU216DAVISVP2,2013-10-07 20:31:00,
2013-10-07 16:36:00,58.5,47.3,29.83,East,101,2.0,17.0,66,0.00,,,0.14,WUHU216DAVISVP2,2013-10-07 20:36:00,
2013-10-07 16:41:00,58.0,46.8,29.83,East,84,4.0,17.0,66,0.00,,,0.14,WUHU216DAVISVP2,2013-10-07 20:41:00,
2013-10-07 16:46:00,58.2,47.8,29.83,East,81,2.0,16.0,68,0.00,,,0.14,WUHU216DAVISVP2,2013-10-07 20:46:00,
2013-10-07 16:51:00,58.8,48.0,29.84,SSE,162,4.0,18.0,67,0.00,,,0.14,WUHU216DAVISVP2,2013-10-07 20:51:00,
2013-10-07 16:56:00,58.0,47.1,29.84,ESE,104,6.0,18.0,67,0.00,,,0.14,WUHU216DAVISVP2,2013-10-07 20:56:00,
2013-10-07 17:01:00,57.4,46.5,29.84,ESE,102,5.0,16.0,67,0.00,,,0.14,WUHU216DAVISVP2,2013-10-07 21:01:00,
2013-10-07 17:06:00,57.0,46.5,29.84,SE,124,2.0,16.0,68,0.00,,,0.14,WUHU216DAVISVP2,2013-10-07 21:06:00,
2013-10-07 17:11:00,57.3,46.8,29.85,ESE,103,9.0,15.0,68,0.00,,,0.14,WUHU216DAVISVP2,2013-10-07 21:11:00,
2013-10-07 17:16:00,57.0,46.1,29.85,East,99,6.0,18.0,67,0.00,,,0.14,WUHU216DAVISVP2,2013-10-07 21:16:00,
2013-10-07 17:21:00,56.3,45.5,29.86,East,89,6.0,18.0,67,0.00,,,0.14,WUHU216DAVISVP2,2013-10-07 21:21:00,
2013-10-07 17:26:00,55.9,45.9,29.86,SE,129,4.0,16.0,69,0.00,,,0.14,WUHU216DAVISVP2,2013-10-07 21:26:00,
2013-10-07 17:31:00,56.4,47.1,29.86,SSE,147,3.0,16.0,71,0.00,,,0.14,WUHU216DAVISVP2,2013-10-07 21:31:00,
2013-10-07 17:36:00,57.1,47.0,29.86,East,98,3.0,13.0,69,0.00,,,0.14,WUHU216DAVISVP2,2013-10-07 21:36:00,
2013-10-07 17:41:00,57.5,46.6,29.86,ESE,114,10.0,13.0,67,0.00,,,0.14,WUHU216DAVISVP2,2013-10-07 21:41:00,
2013-10-07 17:46:00,57.4,46.9,29.86,ESE,113,7.0,13.0,68,0.00,,,0.14,WUHU216DAVISVP2,2013-10-07 21:46:00,
2013-10-07 17:51:00,56.8,46.7,29.87,SE,136,6.0,13.0,69,0.00,,,0.14,WUHU216DAVISVP2,2013-10-07 21:51:00,
2013-10-07 17:56:00,56.3,46.6,29.87,ENE,77,5.0,13.0,70,0.00,,,0.14,WUHU216DAVISVP2,2013-10-07 21:56:00,
2013-10-07 18:01:00,55.9,47.0,29.87,ENE,75,3.0,10.0,72,0.00,,,0.14,WUHU216DAVISVP2,2013-10-07 22:01:00,
2013-10-07 18:06:00,55.5,47.0,29.88,ENE,77,3.0,10.0,73,0.00,,,0.14,WUHU216DAVISVP2,2013-10-07 22:06:00,
2013-10-07 18:11:00,55.0,46.9,29.88,ESE,105,1.0,10.0,74,0.00,,,0.14,WUHU216DAVISVP2,2013-10-07 22:11:00,
2013-10-07 18:16:00,55.1,47.7,29.88,ESE,106,2.0,7.0,76,0.00,,,0.14,WUHU216DAVISVP2,2013-10-07 22:16:00,
2013-10-07 18:21:00,55.6,47.8,29.88,East,83,3.0,6.0,75,0.00,,,0.14,WUHU216DAVISVP2,2013-10-07 22:21:00,
2013-10-07 18:26:00,55.5,48.1,29.88,SE,138,2.0,7.0,76,0.00,,,0.14,WUHU216DAVISVP2,2013-10-07 22:26:00,
2013-10-07 18:31:00,55.4,48.0,29.88,East,98,6.0,7.0,76,0.00,,,0.14,WUHU216DAVISVP2,2013-10-07 22:31:00,
2013-10-07 18:36:00,55.6,48.2,29.89,East,94,5.0,6.0,76,0.00,,,0.14,WUHU216DAVISVP2,2013-10-07 22:36:00,
2013-10-07 18:41:00,55.8,48.4,29.88,East,82,1.0,7.0,76,0.00,,,0.14,WUHU216DAVISVP2,2013-10-07 22:41:00,
2013-10-07 18:46:00,55.7,48.3,29.89,East,86,6.0,9.0,76,0.00,,,0.14,WUHU216DAVISVP2,2013-10-07 22:46:00,
2013-10-07 18:51:00,55.6,48.6,29.89,East,96,2.0,9.0,77,0.00,,,0.14,WUHU216DAVISVP2,2013-10-07 22:51:00,
2013-10-07 18:56:00,55.3,48.3,29.89,East,83,2.0,8.0,77,0.00,,,0.14,WUHU216DAVISVP2,2013-10-07 22:56:00,
2013-10-07 19:01:00,55.0,48.3,29.89,ENE,77,2.0,8.0,78,0.00,,,0.14,WUHU216DAVISVP2,2013-10-07 23:01:00,
2013-10-07 19:06:00,54.5,48.2,29.89,ENE,68,2.0,6.0,79,0.00,,,0.14,WUHU216DAVISVP2,2013-10-07 23:06:00,
2013-10-07 19:11:00,53.9,47.9,29.90,East,81,2.0,5.0,80,0.00,,,0.14,WUHU216DAVISVP2,2013-10-07 23:11:00,
2013-10-07 19:15:00,53.4,47.7,29.90,East,79,2.0,5.0,81,0.00,,,0.14,WUHU216DAVISVP2,2013-10-07 23:15:00,
2013-10-07 19:20:00,53.0,47.7,29.90,East,79,2.0,4.0,82,0.00,,,0.14,WUHU216DAVISVP2,2013-10-07 23:20:00,
2013-10-07 19:25:00,52.7,47.7,29.90,ENE,70,1.0,3.0,83,0.00,,,0.14,WUHU216DAVISVP2,2013-10-07 23:25:00,
2013-10-07 19:30:00,52.4,47.4,29.90,ENE,61,2.0,3.0,83,0.00,,,0.14,WUHU216DAVISVP2,2013-10-07 23:30:00,
2013-10-07 19:35:00,52.2,47.5,29.91,ENE,68,1.0,3.0,84,0.00,,,0.14,WUHU216DAVISVP2,2013-10-07 23:35:00,
2013-10-07 19:40:00,52.0,47.3,29.91,ENE,62,1.0,3.0,84,0.00,,,0.14,WUHU216DAVISVP2,2013-10-07 23:40:00,
2013-10-07 19:45:00,51.7,47.0,29.91,ENE,63,0.0,3.0,84,0.00,,,0.14,WUHU216DAVISVP2,2013-10-07 23:45:00,
2013-10-07 19:50:00,51.2,46.8,29.91,ENE,65,0.0,3.0,85,0.00,,,0.14,WUHU216DAVISVP2,2013-10-07 23:50:00,
2013-10-07 19:55:00,51.0,46.9,29.92,ENE,62,0.0,2.0,86,0.00,,,0.14,WUHU216DAVISVP2,2013-10-07 23:55:00,
2013-10-07 20:00:00,50.6,46.9,29.91,ENE,63,0.0,1.0,87,0.00,,,0.14,WUHU216DAVISVP2,2013-10-08 00:00:00,
2013-10-07 20:05:00,50.2,46.5,29.92,ENE,61,0.0,1.0,87,0.00,,,0.14,WUHU216DAVISVP2,2013-10-08 00:05:00,
2013-10-07 20:10:00,49.8,46.7,29.92,ENE,60,0.0,1.0,89,0.00,,,0.14,WUHU216DAVISVP2,2013-10-08 00:10:00,
2013-10-07 20:15:00,49.4,46.3,29.92,ENE,60,0.0,0.0,89,0.00,,,0.14,WUHU216DAVISVP2,2013-10-08 00:15:00,
2013-10-07 20:20:00,49.0,46.2,29.92,ENE,59,0.0,0.0,90,0.00,,,0.14,WUHU216DAVISVP2,2013-10-08 00:20:00,
2013-10-07 20:25:00,48.6,46.1,29.92,ENE,59,0.0,0.0,91,0.00,,,0.14,WUHU216DAVISVP2,2013-10-08 00:25:00,
2013-10-07 20:30:00,48.3,45.8,29.93,ENE,60,0.0,0.0,91,0.00,,,0.14,WUHU216DAVISVP2,2013-10-08 00:30:00,
2013-10-07 20:36:00,48.0,45.7,29.93,ENE,60,0.0,0.0,92,0.00,,,0.14,WUHU216DAVISVP2,2013-10-08 00:36:00,
2013-10-07 20:41:00,47.9,45.9,29.93,ENE,60,0.0,0.0,93,0.00,,,0.14,WUHU216DAVISVP2,2013-10-08 00:41:00,
2013-10-07 20:46:00,47.9,45.9,29.93,ENE,59,0.0,0.0,93,0.00,,,0.14,WUHU216DAVISVP2,2013-10-08 00:46:00,
2013-10-07 20:50:00,47.9,45.9,29.93,ENE,60,0.0,0.0,93,0.00,,,0.14,WUHU216DAVISVP2,2013-10-08 00:50:00,
2013-10-07 20:55:00,47.8,45.8,29.93,ENE,60,0.0,0.0,93,0.00,,,0.14,WUHU216DAVISVP2,2013-10-08 00:55:00,
2013-10-07 21:00:00,47.6,45.9,29.93,NNW,343,0.0,0.0,94,0.00,,,0.14,WUHU216DAVISVP2,2013-10-08 01:00:00,
2013-10-07 21:06:00,47.5,45.8,29.93,NNW,342,0.0,0.0,94,0.00,,,0.14,WUHU216DAVISVP2,2013-10-08 01:06:00,
2013-10-07 21:11:00,47.3,45.6,29.94,NNW,343,0.0,0.0,94,0.00,,,0.14,WUHU216DAVISVP2,2013-10-08 01:11:00,
2013-10-07 21:16:00,47.1,45.4,29.94,NNW,342,0.0,0.0,94,0.00,,,0.14,WUHU216DAVISVP2,2013-10-08 01:16:00,
2013-10-07 21:21:00,46.9,45.5,29.94,NNW,343,0.0,0.0,95,0.00,,,0.14,WUHU216DAVISVP2,2013-10-08 01:21:00,
2013-10-07 21:26:00,46.7,45.3,29.95,NNW,343,0.0,0.0,95,0.00,,,0.14,WUHU216DAVISVP2,2013-10-08 01:26:00,
2013-10-07 21:31:00,46.3,44.9,29.95,NNW,342,0.0,0.0,95,0.00,,,0.14,WUHU216DAVISVP2,2013-10-08 01:31:00,
2013-10-07 21:35:00,46.3,44.9,29.95,NNW,331,0.0,0.0,95,0.00,,,0.14,WUHU216DAVISVP2,2013-10-08 01:35:00,
2013-10-07 21:40:00,46.2,45.1,29.95,NNW,331,0.0,0.0,96,0.00,,,0.14,WUHU216DAVISVP2,2013-10-08 01:40:00,
2013-10-07 21:46:00,46.3,45.2,29.96,NW,325,0.0,0.0,96,0.00,,,0.14,WUHU216DAVISVP2,2013-10-08 01:46:00,
2013-10-07 21:51:00,46.2,45.1,29.96,NW,325,0.0,2.0,96,0.00,,,0.14,WUHU216DAVISVP2,2013-10-08 01:51:00,
2013-10-07 21:56:00,46.0,44.9,29.96,NW,325,0.0,2.0,96,0.00,,,0.14,WUHU216DAVISVP2,2013-10-08 01:56:00,
2013-10-07 22:01:00,46.2,45.1,29.97,NW,325,0.0,2.0,96,0.00,,,0.14,WUHU216DAVISVP2,2013-10-08 02:01:00,
2013-10-07 22:06:00,46.3,45.2,29.97,NW,311,0.0,2.0,96,0.00,,,0.14,WUHU216DAVISVP2,2013-10-08 02:06:00,
2013-10-07 22:11:00,46.2,45.1,29.97,NW,311,0.0,2.0,96,0.00,,,0.14,WUHU216DAVISVP2,2013-10-08 02:11:00,
2013-10-07 22:16:00,46.2,45.1,29.97,NW,311,2.0,2.0,96,0.00,,,0.14,WUHU216DAVISVP2,2013-10-08 02:16:00,
2013-10-07 22:21:00,46.4,45.3,29.97,North,6,0.0,2.0,96,0.00,,,0.14,WUHU216DAVISVP2,2013-10-08 02:21:00,
2013-10-07 22:26:00,46.5,45.4,29.98,NNW,335,0.0,2.0,96,0.00,,,0.14,WUHU216DAVISVP2,2013-10-08 02:26:00,
2013-10-07 22:31:00,46.4,45.3,29.98,NNW,330,0.0,2.0,96,0.00,,,0.14,WUHU216DAVISVP2,2013-10-08 02:31:00,
2013-10-07 22:35:00,46.5,45.4,29.98,NNE,12,0.0,2.0,96,0.00,,,0.14,WUHU216DAVISVP2,2013-10-08 02:35:00,
2013-10-07 22:40:00,46.3,44.9,29.98,North,11,0.0,2.0,95,0.00,,,0.14,WUHU216DAVISVP2,2013-10-08 02:40:00,
2013-10-07 22:45:00,46.1,45.0,29.98,NNE,12,0.0,2.0,96,0.00,,,0.14,WUHU216DAVISVP2,2013-10-08 02:45:00,
2013-10-07 22:50:00,46.0,44.9,29.99,North,7,1.0,2.0,96,0.00,,,0.14,WUHU216DAVISVP2,2013-10-08 02:50:00,
2013-10-07 22:55:00,46.3,45.5,29.99,NNE,16,1.0,3.0,97,0.00,,,0.14,WUHU216DAVISVP2,2013-10-08 02:55:00,
2013-10-07 23:00:00,46.9,45.8,29.99,North,6,1.0,3.0,96,0.00,,,0.14,WUHU216DAVISVP2,2013-10-08 03:00:00,
2013-10-07 23:05:00,47.3,46.2,29.99,NNW,347,2.0,4.0,96,0.00,,,0.14,WUHU216DAVISVP2,2013-10-08 03:05:00,
2013-10-07 23:10:00,47.6,46.2,29.99,North,8,1.0,4.0,95,0.00,,,0.14,WUHU216DAVISVP2,2013-10-08 03:10:00,
2013-10-07 23:15:00,47.7,46.0,29.99,NNE,27,2.0,4.0,94,0.00,,,0.14,WUHU216DAVISVP2,2013-10-08 03:15:00,
2013-10-07 23:20:00,47.9,46.2,29.99,NE,36,3.0,4.0,94,0.00,,,0.14,WUHU216DAVISVP2,2013-10-08 03:20:00,
2013-10-07 23:25:00,48.0,46.0,30.00,NNE,20,2.0,3.0,93,0.00,,,0.14,WUHU216DAVISVP2,2013-10-08 03:25:00,
2013-10-07 23:30:00,47.9,45.9,30.00,North,11,1.0,3.0,93,0.00,,,0.14,WUHU216DAVISVP2,2013-10-08 03:30:00,
2013-10-07 23:35:00,47.8,45.8,30.00,NNE,17,1.0,3.0,93,0.00,,,0.14,WUHU216DAVISVP2,2013-10-08 03:35:00,
2013-10-07 23:40:00,47.7,45.7,30.00,NNE,26,2.0,3.0,93,0.00,,,0.14,WUHU216DAVISVP2,2013-10-08 03:40:00,
2013-10-07 23:45:00,47.7,45.7,30.00,North,5,1.0,3.0,93,0.00,,,0.14,WUHU216DAVISVP2,2013-10-08 03:45:00,
2013-10-07 23:50:00,47.7,45.7,30.00,North,8,2.0,3.0,93,0.00,,,0.14,WUHU216DAVISVP2,2013-10-08 03:50:00,
2013-10-07 23:56:00,47.7,45.4,30.00,North,4,2.0,3.0,92,0.00,,,0.14,WUHU216DAVISVP2,2013-10-08 03:56:00,